EW4858 Weather Reports


Display with metric or nautical units.
time (UTC)temp
F
wind
direction
speed
MPH
gust
MPH
rain 1hr
in
rain 24hr
in
rain mn
in
humidity
%
barometer
mb
20260503031545 63 84 2.0 7.0 0.00 0.00 0.00 80 1007.2
20260503030045 64 122 4.0 8.0 0.00 0.00 0.00 78 1007.1
20260503024544 65 43 3.0 5.0 0.00 0.00 0.00 76 1007.2
20260503023050 65 78 1.0 7.0 0.00 0.00 0.00 75 1007.2
20260503021551 66 88 3.0 8.0 0.00 0.00 0.00 74 1007.0
20260503020049 67 118 5.0 8.0 0.00 0.00 0.00 73 1007.0
20260503014544 68 130 4.0 8.0 0.00 0.00 0.00 71 1006.8
20260503013042 70 106 4.0 9.0 0.00 0.00 0.00 69 1006.8
20260503011541 71 46 3.0 7.0 0.00 0.00 0.00 67 1006.6
20260503010043 71 57 2.0 8.0 0.00 0.00 0.00 66 1006.7
20260503004555 72 49 3.0 11.0 0.00 0.00 0.00 65 1006.7
20260503003057 73 47 6.0 9.0 0.00 0.00 0.00 64 1006.6
20260503001553 74 70 5.0 10.0 0.00 0.00 0.00 63 1006.6
20260503000039 73 111 3.0 10.0 0.00 0.00 0.00 63 1006.4
20260502234538 74 91 5.0 11.0 0.00 0.00 0.00 64 1006.6
20260502233039 74 90 4.0 10.0 0.00 0.00 0.00 64 1006.6
20260502231537 74 99 5.0 12.0 0.00 0.00 0.00 62 1006.7
20260502230036 75 139 6.0 11.0 0.00 0.00 0.00 61 1006.5
20260502224537 76 38 6.0 13.0 0.00 0.00 0.00 60 1006.8
20260502223033 76 42 4.0 8.0 0.00 0.00 0.00 60 1006.9
20260502221531 76 81 4.0 8.0 0.00 0.00 0.00 61 1007.2
20260502220034 76 78 4.0 11.0 0.00 0.00 0.00 61 1007.4
20260502214527 76 59 5.0 12.0 0.00 0.00 0.00 61 1007.7
20260502213025 76 65 7.0 12.0 0.00 0.00 0.00 61 1007.7
20260502211525 77 86 5.0 12.0 0.00 0.00 0.00 59 1008.0
20260502210023 76 46 5.0 11.0 0.00 0.00 0.00 60 1007.8
20260502204532 76 34 1.0 9.0 0.00 0.00 0.00 61 1007.8
20260502203016 75 98 5.0 10.0 0.00 0.00 0.00 62 1007.8
20260502201513 74 29 0.0 4.0 0.00 0.00 0.00 64 1008.1
20260502200009 72 51 0.0 4.0 0.00 0.00 0.00 66 1008.4
20260502194504 71 45 0.0 4.0 0.00 0.00 0.00 69 1008.6
20260502193001 70 41 1.0 6.0 0.00 0.00 0.00 70 1008.9
20260502191610 68 42 0.0 9.0 0.00 0.00 0.00 72 1009.2
20260502190055 67 99 3.0 7.0 0.00 0.00 0.00 74 1009.4
20260502184551 66 167 2.0 11.0 0.00 0.00 0.00 76 1009.6
20260502183050 65 92 0.0 3.0 0.00 0.00 0.00 79 1009.9
20260502181545 64 69 2.0 5.0 0.00 0.00 0.00 82 1010.0
20260502163033 60 120 0.0 5.0 0.00 0.00 0.00 88 1011.0
20260502161531 59 146 0.0 4.0 0.00 0.00 0.00 88 1011.0
20260502151528 59 72 0.0 5.0 0.00 0.00 0.00 88 1010.8
20260502123018 58 275 3.0 5.0 0.00 0.00 0.00 87 1009.9
20260502121518 58 297 1.0 5.0 0.00 0.00 0.00 87 1009.7
20260502114517 58 267 2.0 6.0 0.00 0.00 0.00 87 1009.6
20260502113017 58 255 4.0 6.0 0.00 0.00 0.00 86 1009.6
20260502111518 59 257 3.0 5.0 0.00 0.00 0.00 85 1009.4
20260502110016 59 240 0.0 4.0 0.00 0.00 0.00 86 1009.5
20260502104515 59 237 0.0 2.0 0.00 0.00 0.00 86 1009.4
20260502103033 59 237 0.0 0.0 0.00 0.00 0.00 86 1009.3
20260502101513 59 237 0.0 0.0 0.00 0.00 0.00 86 1009.4
20260502091512 58 237 1.0 3.0 0.00 0.00 0.00 86 1009.3
20260502070101 60 193 0.0 0.0 0.00 0.00 0.00 85 1010.0
20260502064555 60 193 0.0 4.0 0.00 0.00 0.00 84 1010.0
20260502063111 61 188 1.0 4.0 0.00 0.00 0.00 83 1010.0
20260502061554 61 120 0.0 3.0 0.00 0.00 0.00 84 1010.0
20260502060105 61 95 1.0 3.0 0.00 0.00 0.00 85 1010.0
20260502054608 60 350 0.0 0.0 0.00 0.00 0.00 85 1010.1
20260502053056 60 350 0.0 2.0 0.00 0.00 0.00 84 1010.0
20260502051552 60 350 0.0 0.0 0.00 0.00 0.00 83 1010.0
20260502050057 61 350 0.0 0.0 0.00 0.00 0.00 83 1010.1
20260502044551 61 350 0.0 0.0 0.00 0.00 0.00 82 1010.0
20260502043100 61 350 0.0 3.0 0.00 0.00 0.00 82 1009.9
20260502041551 62 350 0.0 3.0 0.00 0.00 0.00 82 1009.8
20260502040052 62 350 0.0 0.0 0.00 0.00 0.00 81 1009.7
20260502034551 62 350 0.0 2.0 0.00 0.00 0.00 81 1009.6
20260502033049 62 350 0.0 3.0 0.00 0.00 0.00 81 1009.4